Погода в Красногорском

Россия / Челябинская область     54°36′20″N   61°13′45″E
темп.,
°C
ветер,
м/с
пор.,
м/с
влажн.,
%
обл.,
%
осадки,
мм/ч
давл.,
гПа
погр.,
м
22 апреля, чт
чт2223:00+8ююв33445 0.0 103332
02:00+6ююз345062 0.0 103355
05:00+5юз225641 0.0 103518
08:00+7ююз3653100 0.0 1035200
11:00+11ююз6836100 0.0 10351062
14:00+12ююз6835100 0.0 10341398
17:00+13ююз7932100 0.0 10331566
20:00+11ююз5942100 0.0 1034285
23 апреля, пт
пт2323:00+8ююз3854100 0.0 1033181
02:00+7ююз3859100 0.0 1032196
05:00+6ююз41073100 0.0 1034607
08:00+8ююз5965100 0.0 1033787
11:00+10юз5861100 0.1 10331243
14:00+13ююз6846100 0.0 10321893
17:00+14ю5645100 0.0 10301824
20:00+11ю4859100 0.0 1030206
24 апреля, сб
сб2423:00+9ююз4969100 0.0 1029439
02:00+7ююв5785100 0.6 1028881
05:00+6юв5788100 2.5 1027989
08:00+5юв5789100 0.8 1025684
11:00+8ююв6966100 1.2 10231235
14:00+10юв6849100 0.1 10211455
17:00+11ююв6938100 0.1 10182098
20:00+7ю4760100 0.0 1019562
25 апреля, вс
вс2523:00+7вюв5954100 0.0 1017343
02:00+6всв3768100 0.0 1015188
05:00+4всв3676100 0.0 1015184
08:00+6св226784 0.0 1016277
11:00+10сз115177 0.0 1015675
14:00+13ююз35455 0.0 10141356
17:00+11юз59705 0.4 1015892
20:00+10юз6116392 0.1 1015423
26 апреля, пн
пн2623:00+9зюз512655 0.1 1016452
02:00+7зюз612695 0.0 1017495
05:00+5зюз5117723 0.0 1019390
08:00+6з586342 0.0 1021848
11:00+9зюз5651100 0.0 10211170
14:00+11зюз5639100 0.0 10201779
17:00+12зюз5637100 0.0 10201828
20:00+9ююз3649100 0.0 1019181